Location: Colle Santa Colomba
(42.0333°N, 12.5667°E)
Time: 23:14:23
(UTC+00:00)

N. Korean satellite - Visible Passes

Search period start: 04 December 2022 00:00
Search period end: 14 December 2022 00:00
Orbit: 421 x 453 km, 97.3° (Epoch: 04 December)

Date Brightness Start Highest point End Pass type
(mag) Time Alt. Az. Time Alt. Az. Time Alt. Az.
04 Dec 9.7 03:32:03 10° ENE 03:33:47 13° E 03:35:31 10° ESE visible
04 Dec 7.1 05:03:20 10° N 05:06:24 32° WNW 05:09:26 10° SW visible
05 Dec 6.6 04:24:13 10° NNE 04:27:37 70° ESE 04:30:58 10° S visible
05 Dec 9.5 16:26:52 10° SW 16:29:27 20° W 16:32:03 10° NW visible
06 Dec 9.1 03:45:59 10° NE 03:48:34 20° E 03:51:07 10° SE visible
06 Dec 7.6 05:18:21 10° NNW 05:21:00 21° WNW 05:23:36 10° WSW visible
07 Dec 6.2 04:38:50 10° N 04:42:13 71° WNW 04:45:33 10° SSW visible
07 Dec 9.8 16:42:23 10° WSW 16:44:08 13° W 16:45:53 10° WNW visible
08 Dec 8.3 04:00:09 10° NNE 04:03:11 30° E 04:06:11 10° SSE visible
08 Dec 8.1 05:33:30 10° NNW 05:35:24 14° WNW 05:37:19 10° WSW visible
08 Dec 7.9 16:01:42 10° S 16:04:55 42° W 16:08:12 10° NNW visible
09 Dec 6.6 04:53:26 10° N 04:56:40 43° WNW 04:59:50 10° SSW visible
10 Dec 7.3 04:14:22 10° NNE 04:17:39 48° E 04:20:53 10° S visible
10 Dec 8.9 16:16:26 10° SSW 16:19:22 27° W 16:22:20 10° NW visible
11 Dec 9.5 03:36:24 10° NE 03:38:23 15° E 03:40:21 10° SE visible
11 Dec 7.2 05:08:00 10° N 05:10:56 28° WNW 05:13:49 10° SW visible
12 Dec 6.4 04:28:34 10° NNE 04:31:57 80° ESE 04:35:15 10° S visible
12 Dec 9.5 16:31:17 10° SW 16:33:42 18° W 16:36:08 10° NW visible
13 Dec 8.9 03:50:01 10° NE 03:52:42 22° E 03:55:21 10° SSE visible
13 Dec 7.7 05:22:37 10° NNW 05:25:03 19° WNW 05:27:28 10° WSW visible
